Regional Weather Roundup
Issued by NWS Upton, NY

Current Version | Previous Version | Text Only | Print | Product List | Glossary On
Versions: 1 2 3 4 5 6 7 8 9 10 11 12 13 14 15 16 17 18 19 20 21 22 23 24 25 26 27
000
ASUS41 KOKX 202205
RWROKX

Regional Weather Roundup
National Weather Service New York NY
600 PM EDT FRI APR 20 2018

Note: "FAIR" indicates few or no clouds below 12,000 feet with no
significant weather and/or obstructions to visibility.

NYZ071-072-176-178-NJZ106-104-202300-
New York City Metro Area

CITY           SKY/WX    TMP DP  RH WIND       PRES   REMARKS
Central Park   FAIR      47  23  38 NW9G22    30.27R
Bronx Bot Gard   N/A     46  25  42 NW15      30.24
Bronx Lehman C   N/A     46  25  42 NW10        N/A
LaGuardia Arpt FAIR      48  25  40 NW16G28   30.24R
Queens College   N/A     46  25  42 NW20        N/A
Kennedy Intl   FAIR      49  25  39 NW24G33   30.24R
Breezy Point     N/A     46 N/A N/A NW14G21     N/A
Brooklyn Coll    N/A     48  25  40 NW16        N/A
Staten Island    N/A     48  25  40 NW17        N/A
Newark/Liberty FAIR      50  24  36 W26       30.25R
Teterboro      FAIR      47  25  42 NW21G30   30.24R
$$

NYZ177-179-078>081-202300-
Long Island New York

CITY           SKY/WX    TMP DP  RH WIND       PRES   REMARKS
Jones Beach      N/A     48 N/A N/A NW20G25     N/A
Wantagh          N/A     48  25  40 NW15        N/A
Hempstead        N/A     48  28  46 W14       30.25
Matinecock Pt    N/A     46 N/A N/A NW25        N/A
Farmingdale    FAIR      50  24  36 NW16G24   30.21R
MacArthur/ISP  FAIR      51  26  37 NW15G25   30.19R
Stony Brook      N/A     48  28  46 N10         N/A
Shirley        FAIR      51  27  39 NW14G23   30.19R
Mt Sinai Harb    N/A    N/A N/A N/A NW7         N/A
Westhampton    FAIR      51  24  34 NW16G23   30.19R
East Hampton   FAIR      49  27  42 NW7G16    30.16R
Southold         N/A     48  32  53 NW9         N/A
Montauk          N/A     52  31  44 NW8       30.16R
$$

NYZ052-065-067-202300-
Hudson Valley

CITY           SKY/WX    TMP DP  RH WIND       PRES   REMARKS
White Plains   FAIR      46  23  40 NW22G28   30.21R
Larchmont Harb   N/A     45 N/A N/A W18G25      N/A
Croton On Huds   N/A     46 N/A N/A W21         N/A
Somers           N/A     45  27  49 NW8G22      N/A
Brewster         N/A     45  25  45 NW13        N/A
Newburgh       MOSUNNY   43  25  49 NW18      30.25R
Montgomery     FAIR      44  25  47 NW15G24   30.24R
Otisville        N/A     41  25  52 NW9         N/A
Warwick          N/A     41  25  52 NW21        N/A
Suffern          N/A     43  25  49 NW15G28     N/A
Poughkeepsie   FAIR      46  23  40 NW17G24   30.24R
Albany         PTSUNNY   42  23  46 W20G30    30.27R
$$

NJZ001-105-106-008-010-013-015-019>022-104-202300-
New Jersey

CITY           SKY/WX    TMP DP  RH WIND       PRES   REMARKS
Newark/Liberty FAIR      50  24  36 W26       30.25R
Teterboro      FAIR      47  25  42 NW21G30   30.24R
Caldwell       FAIR      45  22  40 NW15G24   30.27R
Somerville     FAIR      47  24  40 NW10G30   30.26R
Linden         FAIR      49  23  36 N17G23    30.26R
Perth Amboy      N/A     46 N/A N/A NW18G24     N/A
Sussex         CLOUDY    44  25  47 VRB6      30.29R
Andover          N/A     43  22  43 N13G23    30.28R
Trenton        FAIR      50  25  37 N16G28    30.25R
Millville      FAIR      54  25  32 NW20G26   30.25R
Atlantic City  FAIR      55  27  34 NW16G29   30.23R
Wrightstown    FAIR      53  26  35 NW10      30.22
Toms River     FAIR      52  25  35 NW13G23   30.24R
Belmar         FAIR      51  23  33 W18G25    30.24R
$$

PAZ047>061-062-071-202300-
Eastern Pennsylvania

CITY           SKY/WX    TMP DP  RH WIND       PRES   REMARKS
Philadelphia   FAIR      53  24  32 NW16G25   30.26R
Allentown      FAIR      49  24  37 N17       30.29R
Scranton       CLOUDY    42  24  49 NW20G26   30.30R
$$

CTZ002-004>006-009-010-012-RIZ004-006-007-MAZ004-011-015-202300-
Southern New England

 In CT

CITY           SKY/WX    TMP DP  RH WIND       PRES   REMARKS
Bradley Intl   FAIR      48  25  40 NW16G25   30.19R
Hartford       FAIR      49  25  39 NW15G22   30.19R
Danbury        FAIR      46  24  42 NW13G20   30.21R
Wtrbury/Oxford FAIR      45  25  45 NW13G22   30.19R
Norwalk Harbor   N/A     46 N/A N/A NW15        N/A
Bridgeport     FAIR      51  24  34 N14G22    30.19R
Meriden        FAIR      48  24  39 NW16G26   30.19R
New Haven      FAIR      50  25  37 NW12G18   30.19R
Chester        FAIR      50  25  37 NW12G20   30.16R
Groton         FAIR      52  27  38 NW16      30.14R
Willimantic    CLOUDY    50  26  39 NW10G22   30.16R

 In RI

CITY           SKY/WX    TMP DP  RH WIND       PRES   REMARKS
Providence     PTSUNNY   52  26  36 NW18      30.12R
Block Island   FAIR      50  33  52 W8        30.14R
Westerly       FAIR      54  27  35 NW13G23   30.14R

In MA

CITY           SKY/WX    TMP DP  RH WIND       PRES   REMARKS
Boston         PTSUNNY   50  26  39 NW17G29   30.13R
Worcester      CLOUDY    44  25  47 N15G26    30.13R
Westfield      CLOUDY    48  25  40 NW17G24   30.18R
Provincetown   PTSUNNY   47  36  65 NW6       30.10R
Nantucket      CLOUDY    48  31  51 NW8       30.11R
$$

ANZ330-335-338-340-345-350-353-355-202300-
Coastal Marine Observations


STATION/POSITION TIME  SKY/WX   TEMP    WIND        PRES    VSBY  WAVE
                                AIR SEA DIR/SP/G                  HT/PER
                 (UTC)          (F)     (DEG/KT/KT) (MB)    (MI)  (FT/S)
NY Harb Entrance 2150            47 44  320/ 12/ 14 1023.7          2/11
20 S Fire Island 2150            46 43  300/ 16/ 17 1022.8          2/ 4
23 SSW Montauk P 2150            45 42  270/ 10/ 12 1021.7          3/10
15 E Barnegat Li 2130               45                N/A           2/11
Hudson Canyon    2150            44 45  270/ 12/ 14 1022.9          4/ 6
Kings Point      2136            46 45  360/ 18/ 23 1024.4
Execution Rocks  NOT AVBL
Western LI Sound NOT AVBL
Central LI Sound 2145            47     310/ 12/ 14   N/A           2
Robbins Reef     2136            48     330/ 12/ 20 1024.2
$$


>>>>>>>>>>>>>>>>>>>>>>>>>>>> KEY <<<<<<<<<<<<<<<<<<<<<<<<<<<
>                                                          <
>     SKY/WX - Sky Condition/Present Weather               <
>     TMP    - Temperature in Fahrenheit                   <
>     DP     - Dew Point in Fahrenheit                     <
>     RH     - Relative Humidity in Percent                <
>     WIND   - Direction (from) and Speed in MPH           <
>     PRES   - Mean Sea Level Pressure (inches of Hg)      <
>     WCI    - Wind Chill Index                            <
>     VSB    - Visibility in Miles                         <
>     HX     - Heat Index                                  <
>     TC     - Temperature in Celsius                      <
>     VRB    - Varibale Wind Direction                     <
>                                                          <
>>>>>>>>>>>>>>>>>>>>>>>>>>>> KEY <<<<<<<<<<<<<<<<<<<<<<<<<<<




USA.gov is the U.S. government's official web portal to all federal, state and local government web resources and services.